Powrót do katalogu

DELTA 1 DEB

AktywnyPO
NORAD 23309·DEBRIS·🇺🇸 United States

Wystrzelony Jun 12, 1975 z Vandenberg Space Force Base

Loading…

Następne Przeloty (najbliższe 24 godziny)

TLE

ŚwieżeSource: Space-Track

Epoka: Sep 14, 2026, 02:03 UTC

1 23309U 75052JY  26257.08608394  .00000134  00000-0  60962-3 0  9990
2 23309  99.6770 114.9566 0392566 255.2477 263.0533 12.72552156637264

Śledź DELTA 1 DEB w czasie rzeczywistym z AllMySat

Download on the App Store